Powrót do katalogu

TRANSIT 5E 3

AktywnyNawigacjaPO
NORAD 705·PAYLOAD·🇺🇸 United States

Wystrzelony Dec 5, 1963 z Vandenberg Space Force Base

Loading…

Następne Przeloty (najbliższe 24 godziny)

TLE

ŚwieżeSource: Space-Track

Epoka: Sep 14, 2026, 09:28 UTC

1 00705U 63049C   26257.39454384  .00000040  00000-0  49077-4 0  9991
2 00705  89.9186  69.6860 0033801   1.6480  16.1340 13.47684156 84118

Śledź TRANSIT 5E 3 w czasie rzeczywistym z AllMySat

Download on the App Store